DW1850 Weather Reports


time (UTC)temp
C
wind
direction
speed
KPH
gust
KPH
rain 1hr
cm
rain 24hr
cm
rain mn
cm
humidity
%
barometer
mb
20260506202746 19 328 17.7 32.2 0.00 0.00 0.00 75 1008.7
20260506185744 24 315 17.7 27.4 0.00 0.00 0.00 69 1008.6
20260506182743 25 343 1.6 20.9 0.00 0.00 0.00 70 1008.3
20260506175742 23 54 0.0 9.7 0.00 0.00 0.00 75 1008.2
20260506172741 22 55 0.0 14.5 0.00 0.00 0.00 78 1007.8
20260506165741 20 32 0.0 14.5 0.00 0.00 0.00 81 1007.8
20260506162740 18 5 1.6 32.2 0.00 0.00 0.00 92 1008.5
20260506155740 17 16 11.3 38.6 0.00 0.00 0.00 91 1009.1
20260506152738 19 346 16.1 32.2 0.00 0.00 0.00 87 1008.6
20260506145738 23 344 12.9 27.4 0.00 0.00 0.00 77 1008.1
20260506142737 25 164 6.4 16.1 0.00 0.00 0.00 87 1006.7
20260506135736 24 171 1.6 11.3 0.00 0.00 0.00 91 1006.8
20260506132735 23 171 1.6 12.9 0.00 0.00 0.00 92 1006.3
20260506125735 23 172 0.0 11.3 0.00 0.00 0.00 93 1006.0
20260506122734 23 172 0.0 0.0 0.00 0.00 0.00 93 1005.6
20260506115733 23 172 0.0 0.0 0.00 0.00 0.00 92 1005.9
20260506095730 23 172 0.0 14.5 0.00 0.00 0.00 91 1005.4
20260506092730 23 172 0.0 14.5 0.00 0.00 0.00 91 1004.9
20260506085729 23 173 1.6 16.1 0.00 0.00 0.00 90 1004.4
20260506082728 24 172 6.4 19.3 0.00 0.00 0.00 90 1004.5
20260506072756 24 170 9.7 22.5 0.00 0.00 0.00 90 1005.1
20260506035751 25 159 6.4 19.3 0.00 0.00 0.00 88 1004.6
20260506032750 25 164 3.2 14.5 0.00 0.00 0.00 86 1004.2
20260506022749 26 165 9.7 14.5 0.00 0.00 0.00 83 1003.3
20260506015748 26 165 0.0 14.5 0.00 0.00 0.00 81 1002.7
20260506012747 26 169 3.2 19.3 0.00 0.00 0.00 79 1002.7
20260506005747 27 170 0.0 14.5 0.00 0.00 0.00 76 1002.7
20260506002746 27 170 9.7 16.1 0.00 0.00 0.00 74 1002.7
20260505235745 28 169 16.1 20.9 0.00 0.00 0.00 73 1002.7
20260505232744 28 175 3.2 20.9 0.00 0.00 0.00 72 1002.4
20260505225743 28 177 11.3 24.1 0.00 0.00 0.00 71 1002.4
20260505222743 29 162 19.3 24.1 0.00 0.00 0.00 69 1002.2
20260505215742 29 163 1.6 24.1 0.00 0.00 0.00 68 1002.4
20260505212741 29 174 17.7 25.7 0.00 0.00 0.00 69 1002.8
20260505205740 28 146 20.9 24.1 0.00 0.00 0.00 71 1002.9